Temperature
12 12 12 12 12 12 12 12 12 12 12 11 11 11 11 11 11 11 11 10 10 10 10 9 9 9 9 9 9 9 9 9 9 9 9 9 8 8 8 8 8 8 7
11 11 11 11 11 11 11 11 11 11 11 11 11 11 11 11 11 10 10 10 10 10 9 9 9 9 9 9 9 8 9 8 8 8 8 8 8 8 8 7 7 7 7
11 11 11 11 11 11 11 11 11 11 11 11 11 11 10 10 10 10 10 10 10 10 9 9 9 9 9 8 8 8 8 8 8 8 8 8 8 7 7 7 7 7 7
11 11 11 11 11 11 11 11 11 11 10 10 10 10 10 10 10 10 9 9 9 9 9 9 9 9 9 8 8 8 8 8 8 7 7 7 7 7 7 7 7 6 6
10 10 10 10 10 10 10 10 10 10 10 10 10 10 9 9 9 9 9 9 9 9 9 9 9 9 9 8 8 8 8 7 7 7 7 7 7 6 6 6 6 6 6
10 10 10 10 10 10 10 10 10 10 10 10 9 9 9 9 9 9 9 9 9 9 9 8 8 8 8 8 8 8 8 7 7 7 7 6 6 6 6 6 6 6 6
9 10 10 10 9 10 10 10 10 9 9 9 9 9 9 9 9 9 9 9 8 8 8 8 8 8 8 8 8 8 7 7 7 6 6 6 6 6 6 5 5 5 5
9 9 9 9 9 9 9 9 9 9 9 9 8 8 8 8 9 9 9 8 8 8 8 8 8 8 7 7 7 7 7 7 6 6 6 6 6 6 5 5 5 5 5
9 9 9 9 9 9 9 9 9 9 9 8 8 8 8 8 8 8 8 8 8 8 8 7 7 7 7 7 7 7 7 6 6 6 6 6 5 5 5 5 5 5 5
8 8 8 9 9 9 9 9 8 8 8 8 8 8 8 8 7 7 7 8 7 7 7 7 7 7 7 7 6 6 6 6 6 6 6 5 5 5 5 4 4 4 4
8 8 8 8 8 8 8 8 8 8 8 8 8 7 7 7 7 7 6 7 7 7 7 7 6 6 6 6 6 6 6 6 6 6 5 5 5 5 5 4 4 4 4
7 7 7 7 7 7 8 8 7 8 7 7 7 7 7 7 6 6 6 6 6 7 7 7 6 6 6 6 6 6 6 6 6 5 5 5 5 4 4 4 4 3 3
7 7 7 7 7 7 7 7 7 7 7 7 7 7 6 6 6 6 6 5 5 6 6 6 6 5 5 5 5 5 5 5 5 5 5 5 4 4 4 4 3 3 3
6 6 6 6 6 7 7 7 7 7 6 6 6 6 6 6 6 6 5 5 5 5 5 5 5 5 5 5 5 5 5 5 4 4 4 4 4 4 4 3 3 3 3
6 6 6 6 6 6 6 6 6 6 6 6 6 6 6 6 5 5 5 5 4 4 4 4 4 4 4 4 4 4 4 4 4 4 4 4 4 3 3 3 3 3 3
5 5 5 5 6 6 6 6 6 6 6 5 5 5 5 5 5 5 5 4 4 4 3 3 4 4 4 4 4 4 4 4 4 3 3 3 3 3 3 3 2 2 2
5 5 5 5 5 5 5 5 5 5 5 5 5 5 5 5 4 4 4 4 4 4 3 3 3 3 3 3 3 3 3 3 3 3 3 3 3 3 3 2 2 2 2
4 4 4 4 4 4 4 4 5 5 4 4 4 4 4 4 4 4 4 4 3 3 3 3 3 3 3 3 3 3 3 3 3 3 2 2 2 2 2 2 2 2 2
4 4 4 4 4 4 4 4 4 4 4 4 4 4 4 4 4 3 3 3 3 3 3 3 3 2 2 2 2 2 2 2 2 2 2 2 2 2 2 2 1 1 1
3 3 3 3 3 3 3 3 3 3 3 3 3 3 3 3 3 3 3 3 2 2 2 2 2 2 2 2 2 2 2 2 2 2 2 1 1 1 1 1 1 1 1
2 2 2 3 3 3 3 3 3 3 3 3 2 3 2 2 2 2 2 2 2 2 2 2 1 1 1 1 1 1 1 1 2 1 1 1 1 1 1 1 1 1 1
2 2 2 2 2 2 2 2 2 2 2 2 2 2 2 2 1 1 1 1 1 1 1 1 1 1 1 1 1 1 1 1 1 1 1 1 1 1 1 0 0 0 0
1 1 1 1 2 2 2 2 2 2 2 1 1 1 1 1 1 1 1 1 1 1 1 1 1 0 0 0 0 0 0 -0 -0 -0 0 1 1 0 0 0 0 0 0
0 1 1 1 1 1 1 1 1 1 1 1 1 1 1 0 0 0 0 0 0 0 0 0 0 -0 -0 -0 -0 -1 -1 -0 -0 -0 -1 -1 -0 -0 0 0 -0 -0 -0
-0 -0 0 0 0 0 0 0 0 0 0 0 0 -0 -0 -0 -0 -0 -0 -0 -0 -0 -0 -0 -0 -0 -1 -1 -1 -1 -1 -1 -1 -1 -1 -2 -1 -1 -1 -0 -0 -1 -1
-1 -1 -1 -0 -0 -0 -0 -0 -0 -0 -0 -0 -0 -1 -1 -1 -1 -1 -1 -1 -1 -1 -1 -1 -1 -1 -1 -1 -1 -1 -1 -2 -2 -2 -2 -3 -2 -2 -2 -1 -1 -1 -1
Wind_Speed
2 2 3 3 3 4 4 3 4 3 3 3 2 3 3 2 2 1 0 1 1 2 2 2 2 3 3 3 3 3 4 4 4 5 5 6 6 7 8 8 9 10 10
4 2 2 3 3 4 4 4 3 3 2 2 1 2 3 2 2 1 1 1 1 2 3 3 3 4 4 4 3 3 4 5 5 5 6 7 7 8 8 9 9 10 11
5 4 2 3 3 5 5 4 3 3 2 1 1 2 2 2 2 2 1 1 1 2 3 4 4 4 5 4 4 4 5 5 6 6 7 7 8 8 9 9 10 11 11
4 4 3 3 4 5 4 3 3 2 2 1 1 1 1 1 2 2 2 1 1 1 2 3 4 5 5 5 5 5 6 6 7 7 8 8 8 9 9 10 10 11 12
3 3 3 3 4 4 3 4 2 3 2 1 2 1 1 2 2 2 2 2 2 2 2 3 4 5 5 6 7 7 7 8 8 8 8 8 9 9 10 10 11 12 13
2 2 2 2 4 4 3 3 3 2 2 2 1 1 1 2 2 2 2 2 2 2 2 2 2 4 4 6 7 9 9 9 9 9 8 8 9 10 10 11 12 13 13
2 2 1 1 3 4 4 4 3 3 2 2 1 0 1 1 2 2 2 1 1 1 1 2 2 2 3 5 7 9 10 10 10 9 9 9 9 10 11 12 12 12 13
2 2 2 2 3 3 4 4 4 2 1 2 2 2 1 2 1 1 1 2 1 0 1 2 2 2 3 4 6 8 10 11 11 10 9 9 10 11 11 11 12 13 13
1 2 2 2 3 3 4 5 5 4 3 2 2 3 2 3 1 1 1 1 1 1 1 1 1 2 3 4 5 7 9 10 11 10 10 10 10 11 11 12 12 13 14
1 2 2 2 3 3 4 4 5 4 5 3 2 1 1 2 2 1 1 0 0 1 1 1 1 3 4 4 5 6 8 9 10 10 10 10 10 11 11 12 12 13 14
1 1 1 1 2 2 3 4 4 4 4 4 3 2 1 1 1 2 2 2 2 1 1 1 1 2 4 4 5 6 8 9 10 10 9 10 10 10 11 11 12 13 14
1 0 1 1 1 2 2 3 4 5 4 4 3 3 3 2 2 2 2 2 3 2 2 1 1 2 4 4 5 7 8 9 10 10 9 9 9 10 11 11 12 13 14
1 1 0 1 1 1 2 2 3 3 4 4 4 3 3 3 2 2 2 2 2 2 2 1 2 2 3 5 6 8 8 9 9 10 9 9 9 10 11 11 13 13 14
1 1 1 0 1 1 2 2 2 2 3 3 3 4 3 3 2 3 2 2 2 2 2 2 2 2 3 5 6 8 8 9 9 9 9 9 8 9 10 11 12 13 14
0 1 1 0 0 1 1 2 2 2 2 2 2 3 3 2 2 2 2 3 3 3 4 2 2 2 4 5 7 7 8 9 10 9 9 9 9 9 10 11 11 12 13
0 1 1 1 1 0 1 2 2 2 3 1 1 2 2 2 2 1 2 1 2 3 3 2 2 3 4 5 7 8 8 10 10 9 10 10 9 9 10 11 11 12 13
0 1 1 1 1 1 1 2 3 3 3 2 1 2 2 2 2 2 2 1 1 1 2 3 2 3 3 4 6 7 8 8 8 9 10 10 10 10 10 11 11 11 12
1 1 1 1 1 1 1 2 3 3 3 2 2 2 1 1 1 1 2 1 1 1 2 3 3 3 3 3 4 5 6 7 7 9 10 10 10 11 10 10 11 11 12
2 2 1 1 1 1 1 1 3 3 2 2 2 2 1 2 1 1 1 1 1 0 1 1 3 2 2 3 4 4 5 5 7 8 9 10 10 11 10 10 11 12 12
2 2 1 1 2 2 2 2 3 3 3 2 2 2 1 2 1 1 1 1 1 1 0 1 2 2 2 3 3 4 5 5 5 6 8 9 11 11 11 11 12 12 13
2 2 2 2 2 2 2 3 3 4 4 3 2 2 1 1 1 1 1 1 1 1 1 1 2 2 2 3 4 3 4 5 5 3 5 6 7 7 8 10 11 13 13
2 2 1 2 2 1 2 3 4 4 4 3 3 2 2 2 2 3 2 1 0 1 1 1 2 2 3 3 3 3 3 4 4 3 4 6 4 5 6 8 11 13 13
2 2 2 2 2 2 3 4 4 4 4 3 3 2 1 2 3 2 3 3 3 3 2 1 2 3 3 3 3 3 3 4 4 3 4 4 4 5 6 9 12 13 13
1 1 1 2 2 2 3 4 5 4 3 3 2 2 2 1 1 2 2 2 2 3 3 2 1 2 2 2 2 2 3 4 3 2 2 3 4 4 7 9 11 12 12
1 1 2 2 2 1 3 4 5 3 3 3 2 1 1 1 1 3 2 2 2 3 4 5 4 4 4 5 4 2 3 3 3 3 2 2 3 4 5 5 8 11 12
1 1 1 1 1 1 3 4 4 3 3 2 2 1 2 2 2 3 2 1 2 2 2 3 4 5 5 6 6 3 1 2 2 2 2 3 3 4 4 4 5 8 10
Wind_Direction
160 159 159 150 151 151 145 136 131 128 123 119 127 144 143 143 142 137 28 272 249 243 247 258 261 263 268 280 293 307 311 310 312 315 315 319 323 323 322 321 321 320 319
167 163 173 166 166 161 157 152 149 144 146 137 151 163 164 167 167 169 179 264 254 262 262 263 271 273 278 282 284 295 305 304 304 307 307 313 316 317 316 317 319 319 318
175 169 182 181 178 167 156 145 135 124 133 136 197 178 167 179 185 185 179 180 245 272 267 266 273 277 283 281 284 293 301 300 299 300 302 306 309 310 312 315 318 316 315
187 170 180 194 181 165 159 159 161 153 148 158 215 207 190 183 199 199 189 187 200 257 272 272 278 280 284 291 290 291 296 299 300 298 299 303 304 305 309 314 315 315 314
194 180 181 188 173 162 166 171 170 160 164 180 212 204 216 212 210 197 196 208 209 218 245 266 278 288 291 298 298 297 296 296 299 295 295 299 302 304 306 309 311 312 312
187 177 168 179 166 169 173 173 170 163 167 174 188 222 250 236 218 208 215 212 202 219 237 252 280 288 295 302 301 301 298 297 299 294 293 297 299 301 305 308 310 310 312
176 161 159 169 175 183 184 179 167 160 157 134 118 307 304 247 219 220 214 208 206 252 267 255 260 278 298 303 299 302 299 297 300 296 294 296 298 302 305 305 308 310 312
178 176 159 180 184 185 178 173 159 166 167 153 157 159 286 309 293 240 207 207 223 230 298 282 263 274 295 305 304 304 300 295 298 296 298 300 302 305 308 309 310 312 313
191 176 172 189 181 179 188 184 176 172 179 191 176 170 171 224 277 290 239 226 210 212 261 289 281 277 291 300 298 302 304 296 295 297 300 302 306 308 309 310 311 313 314
198 192 168 186 181 174 185 192 184 179 175 191 204 211 178 164 187 278 308 322 270 236 250 282 301 302 299 304 300 302 311 308 295 297 301 303 306 308 311 311 312 314 315
190 187 166 192 185 175 181 192 190 179 184 192 190 187 157 132 172 188 258 296 324 287 265 267 278 310 306 310 308 308 311 310 305 297 298 303 307 311 312 313 314 316 317
260 260 172 173 186 183 185 195 197 190 192 193 190 187 174 172 186 178 215 265 285 291 298 279 279 310 319 321 311 316 313 312 310 307 302 306 310 313 315 316 316 317 317
283 269 237 180 195 199 197 186 184 187 187 190 190 196 192 198 185 176 201 252 286 298 296 289 284 310 331 329 326 330 318 314 313 314 313 307 311 314 315 316 317 318 318
281 308 12 136 180 185 186 171 172 176 177 186 193 192 186 197 187 180 182 199 282 292 287 284 301 301 330 328 329 334 323 319 315 316 317 310 313 316 317 316 317 318 318
324 13 22 37 76 155 181 177 168 166 152 163 194 192 185 189 182 180 186 197 205 256 277 279 287 304 327 328 327 330 322 322 321 320 319 318 316 317 318 316 317 318 319
14 55 24 37 55 67 145 159 143 145 134 150 172 170 174 175 159 168 182 197 211 212 254 273 280 305 317 325 330 329 322 327 322 321 321 321 322 318 318 318 318 319 320
24 57 54 86 94 90 100 133 135 138 136 137 142 127 140 158 162 180 171 168 192 195 248 292 303 316 314 318 332 330 324 322 318 321 323 325 325 321 322 322 320 320 323
21 44 84 97 99 101 111 133 136 132 145 149 134 117 114 113 165 180 160 152 168 181 209 273 308 313 303 306 319 320 327 326 322 321 326 328 328 328 325 326 325 326 327
31 35 68 93 91 106 107 121 131 130 137 138 139 142 156 122 109 183 158 161 163 145 192 242 295 300 311 323 328 320 320 324 330 327 330 332 329 328 326 328 328 331 331
46 32 46 79 87 93 114 120 122 125 123 120 130 145 150 151 180 160 110 147 150 142 183 247 290 311 323 328 325 328 333 332 329 334 338 334 333 331 329 333 335 336 335
48 37 62 72 78 92 122 124 126 130 125 117 106 99 111 106 111 113 125 148 155 185 237 279 299 318 324 336 328 324 320 324 323 335 334 328 330 326 328 331 335 336 336
42 41 59 76 75 74 97 105 110 126 126 121 106 85 81 71 74 64 64 43 11 241 237 269 292 296 298 305 306 313 321 334 324 338 337 321 328 317 324 328 332 337 341
41 40 48 60 69 79 80 85 96 108 114 113 111 102 70 60 50 63 52 32 7 351 323 254 275 277 280 286 297 308 318 317 298 312 330 310 320 315 322 325 333 341 346
49 52 59 62 62 71 83 84 92 92 98 100 104 110 104 78 57 66 59 31 14 4 353 345 273 275 284 295 293 299 302 311 299 314 333 303 316 313 321 324 335 347 350
46 44 57 64 65 67 92 95 91 104 101 93 86 87 103 120 82 57 53 42 24 6 18 20 12 6 0 360 2 10 352 345 330 329 354 325 313 317 315 318 336 347 349
62 43 44 49 68 91 103 104 96 114 114 103 86 79 76 67 62 57 67 66 24 355 10 10 13 12 12 13 14 11 334 337 331 321 340 338 321 336 326 315 328 338 344
Height
1506 1507 1508 1509 1510 1511 1512 1513 1513 1514 1515 1516 1516 1516 1517 1518 1519 1519 1520 1521 1521 1522 1522 1522 1522 1521 1521 1521 1520 1520 1519 1518 1517 1517 1516 1515 1514 1512 1511 1510 1509 1507 1506
1503 1504 1505 1506 1507 1509 1510 1510 1511 1512 1513 1514 1514 1514 1515 1516 1516 1517 1518 1518 1519 1519 1519 1519 1519 1519 1519 1518 1518 1517 1516 1516 1515 1514 1513 1512 1511 1510 1509 1507 1506 1504 1503
1501 1501 1502 1504 1505 1506 1507 1508 1509 1509 1510 1511 1511 1512 1512 1513 1514 1514 1515 1516 1516 1517 1517 1517 1517 1516 1516 1515 1515 1514 1514 1513 1512 1511 1510 1509 1508 1507 1506 1504 1503 1501 1499
1497 1498 1499 1500 1502 1503 1504 1505 1506 1506 1507 1508 1508 1509 1510 1510 1511 1512 1512 1513 1513 1514 1514 1514 1514 1514 1513 1512 1512 1511 1511 1510 1509 1508 1507 1506 1505 1504 1502 1501 1499 1497 1496
1494 1495 1495 1497 1498 1499 1501 1502 1503 1504 1504 1505 1506 1506 1507 1507 1508 1509 1509 1510 1510 1510 1511 1511 1511 1510 1510 1509 1509 1508 1508 1507 1506 1505 1504 1502 1501 1500 1499 1497 1496 1494 1492
1490 1491 1492 1493 1494 1496 1497 1498 1499 1501 1502 1502 1502 1503 1504 1504 1505 1505 1506 1507 1507 1507 1507 1507 1507 1507 1506 1506 1505 1505 1504 1503 1502 1501 1500 1499 1498 1496 1495 1494 1492 1490 1488
1487 1487 1488 1489 1491 1492 1493 1494 1496 1497 1498 1499 1500 1499 1500 1501 1501 1502 1503 1503 1503 1504 1504 1504 1504 1503 1502 1502 1501 1501 1500 1500 1499 1498 1496 1495 1494 1493 1491 1490 1488 1486 1484
1483 1484 1485 1486 1487 1488 1489 1490 1492 1493 1494 1496 1496 1496 1497 1498 1498 1498 1499 1499 1500 1500 1500 1500 1500 1499 1499 1498 1498 1497 1496 1496 1495 1494 1493 1491 1490 1489 1487 1486 1484 1482 1480
1479 1480 1481 1482 1483 1484 1485 1486 1487 1489 1490 1492 1494 1495 1494 1493 1494 1494 1495 1496 1496 1497 1497 1496 1496 1496 1495 1494 1494 1493 1493 1492 1491 1490 1489 1488 1486 1485 1483 1482 1480 1478 1476
1474 1476 1476 1477 1479 1480 1481 1482 1484 1485 1487 1488 1490 1491 1492 1492 1492 1490 1491 1492 1493 1493 1493 1493 1493 1492 1492 1490 1490 1489 1489 1488 1487 1486 1485 1484 1482 1481 1479 1478 1476 1474 1472
1470 1472 1473 1473 1474 1475 1477 1479 1480 1481 1483 1484 1485 1487 1487 1488 1489 1488 1487 1488 1489 1490 1490 1490 1490 1489 1488 1487 1486 1485 1485 1484 1483 1482 1481 1480 1478 1477 1475 1474 1472 1470 1467
1466 1468 1469 1470 1471 1472 1473 1475 1476 1477 1479 1481 1482 1483 1484 1485 1485 1485 1485 1485 1485 1486 1486 1486 1486 1486 1484 1484 1482 1481 1481 1480 1479 1477 1476 1475 1474 1472 1471 1470 1468 1465 1463
1463 1464 1465 1466 1467 1469 1470 1471 1472 1474 1475 1477 1478 1480 1481 1482 1482 1483 1483 1482 1482 1482 1482 1482 1483 1482 1481 1480 1479 1478 1477 1476 1475 1473 1471 1471 1470 1468 1467 1465 1463 1461 1459
1460 1461 1461 1463 1464 1465 1467 1468 1469 1470 1472 1473 1474 1476 1477 1478 1479 1479 1480 1480 1479 1479 1478 1479 1478 1478 1478 1477 1475 1475 1474 1472 1471 1469 1468 1466 1465 1464 1462 1461 1459 1457 1454
1457 1458 1458 1460 1461 1462 1463 1464 1465 1466 1468 1470 1471 1473 1474 1475 1476 1476 1476 1477 1478 1476 1474 1475 1475 1475 1474 1473 1472 1471 1470 1468 1467 1465 1464 1462 1461 1459 1458 1456 1454 1452 1450
1454 1455 1456 1457 1458 1459 1460 1461 1462 1463 1465 1467 1468 1469 1470 1471 1472 1472 1473 1473 1474 1474 1472 1472 1472 1472 1471 1470 1469 1468 1466 1465 1464 1462 1460 1459 1456 1455 1454 1452 1450 1447 1445
1451 1452 1453 1454 1454 1456 1457 1458 1459 1460 1462 1464 1465 1466 1466 1468 1468 1469 1470 1470 1471 1471 1469 1468 1469 1469 1468 1467 1466 1465 1463 1462 1460 1458 1457 1455 1453 1451 1449 1448 1445 1443 1441
1449 1449 1450 1451 1452 1453 1454 1455 1456 1457 1459 1461 1462 1463 1464 1464 1465 1466 1467 1467 1468 1468 1467 1465 1466 1466 1466 1465 1463 1462 1460 1459 1457 1455 1454 1452 1449 1447 1445 1443 1441 1439 1437
1446 1447 1448 1448 1449 1450 1452 1453 1454 1455 1457 1458 1459 1461 1462 1462 1463 1463 1463 1464 1464 1464 1464 1464 1463 1463 1463 1462 1460 1459 1458 1456 1454 1452 1450 1448 1446 1443 1441 1439 1437 1435 1433
1444 1445 1446 1447 1448 1449 1450 1451 1452 1453 1455 1456 1458 1459 1460 1460 1461 1461 1461 1461 1462 1462 1462 1461 1461 1460 1459 1459 1457 1455 1454 1453 1451 1449 1447 1445 1443 1440 1438 1436 1434 1431 1429
1443 1444 1445 1446 1446 1447 1448 1449 1450 1451 1453 1454 1456 1457 1458 1458 1459 1459 1459 1459 1460 1459 1459 1459 1458 1457 1456 1456 1455 1453 1452 1450 1448 1446 1444 1442 1440 1437 1435 1432 1430 1428 1426
1442 1443 1444 1444 1445 1446 1447 1448 1449 1450 1451 1452 1454 1455 1456 1457 1457 1457 1457 1458 1458 1458 1457 1457 1456 1455 1454 1454 1453 1451 1449 1447 1444 1444 1441 1439 1437 1434 1432 1430 1428 1425 1423
1441 1442 1443 1443 1444 1445 1446 1447 1448 1449 1450 1451 1453 1453 1454 1455 1456 1455 1455 1456 1456 1456 1456 1456 1454 1454 1453 1453 1452 1450 1448 1446 1443 1441 1438 1435 1434 1432 1430 1427 1425 1422 1420
1440 1441 1441 1442 1443 1444 1445 1446 1447 1448 1449 1450 1451 1452 1453 1453 1454 1454 1454 1454 1454 1454 1454 1454 1453 1452 1451 1450 1449 1448 1446 1444 1442 1440 1437 1434 1432 1430 1427 1426 1423 1421 1418
1439 1440 1441 1442 1443 1443 1445 1445 1446 1447 1448 1449 1450 1451 1451 1452 1453 1453 1453 1452 1452 1452 1452 1452 1452 1450 1449 1448 1447 1446 1444 1442 1439 1438 1436 1433 1430 1427 1425 1424 1422 1419 1417
1438 1439 1440 1441 1442 1443 1444 1444 1445 1446 1447 1448 1449 1450 1451 1451 1451 1451 1451 1451 1451 1451 1450 1450 1450 1449 1448 1447 1446 1444 1442 1440 1438 1436 1435 1433 1430 1427 1424 1422 1420 1418 1415